Weather in Devyatiny

Russia / Vologda Oblast     60°55′05″N   36°46′55″E
temp.,
°C
wind,
m/s
gust,
m/s
humid.,
%
clouds,
%
prec.,
mm/h
press.,
hPa
HPBL,
m
6 may, thu
thu600:00−2se22835 0.0 100725
03:00−2se239257 0.0 100762
06:00+1ese3978100 0.0 1005302
09:00+3ese51280100 0.1 1003548
12:00+3e61496100 8.7 1000816
15:00+8ese61491100 8.8 996890
18:00+11se61490100 1.6 991997
21:00+8sw61193100 3.5 992901
7 may, fri
fri700:00+6ssw51191100 0.5 9951079
03:00+5s51291100 0.7 9961047
06:00+4ssw51192100 0.1 999985
09:00+5ssw41090100 0.4 10011115
12:00+7ssw5980100 0.4 10021385
15:00+8wsw497399 1.1 10041339
18:00+7wsw378188 0.7 1006910
21:00+5sse229092 0.8 100731
8 may, sat
sat800:00+3s26945 0.0 1008129
03:00+2sse2696100 0.0 1008122
06:00+3se3892100 0.0 1008253
09:00+6se41191100 0.5 10061072
12:00+6se51293100 0.7 10031081
15:00+6sse51293100 0.8 1002824
18:00+7se41095100 0.8 10011033
21:00+7ese41094100 3.6 9981148
9 may, sun
sun900:00+6e3896100 1.9 995451
03:00+6se2799100 5.8 992412
06:00+5ssw3797100 11.6 992712
09:000wnw81798100 21.8 996836
12:00+1wnw81798100 7.7 10041044
15:00+6wnw613822 8.4 10091681
18:00+6w511795 0.1 1013819
21:00+3sw3108754 0.2 1016234
10 may, mon
mon1000:00+2ssw3128891 0.0 1018272
03:00+2ssw3129185 0.0 1019309
06:00+4ssw31091100 0.0 1020336
09:00+8s498691 0.0 1021553
12:00+8ssw41183100 0.0 1021658
15:00+10ssw498574 0.0 1021845
18:00+13ssw4108343 0.0 1021927
21:00+11s41488100 0.0 1021530